Volver al catálogo

SL-8 R/B

ActivoPO
NORAD 6149·ROCKET BODY·🇷🇺 Russia

Lanzado Aug 16, 1972 desde Plesetsk Cosmodrome

Loading…

Próximos Pases (próximas 24 horas)

TLE

ActualizadoSource: Space-Track

Época: Sep 14, 2026, 14:48 UTC

1 06149U 72062B   26257.61683117  .00000102  00000-0  79054-4 0  9994
2 06149  82.9713 204.9365 0009705 126.9359 233.2692 13.83247669727953

Sigue SL-8 R/B en tiempo real con AllMySat

Download on the App Store